CAPE
990 768 497 47 0 0 0 0 8 0 0 0 0 0 0 0 34 31 2 16 0 2 2 0 3 0 6 13 3 4 4 6 3
970 673 192 1 0 0 0 0 6 0 0 0 0 0 0 23 25 35 30 14 9 4 16 8 4 6 7 3 5 9 6 1 0
871 394 90 1 0 0 1 2 2 0 0 0 0 0 0 0 20 32 28 17 4 0 0 2 2 6 4 6 3 2 5 3 9
554 559 259 76 46 6 0 1 3 0 0 0 0 0 0 0 2 6 28 1 41 0 0 0 1 1 3 2 2 1 4 1 0
622 632 379 219 121 44 0 0 3 3 0 0 0 0 0 0 0 2 4 0 42 32 2 0 0 1 0 0 0 0 0 0 0
352 464 576 302 243 179 44 0 0 1 0 0 0 0 0 1 0 0 0 0 2 13 9 8 4 2 0 0 0 0 0 0 0
600 594 483 345 340 315 207 65 0 0 0 1 0 0 0 1 0 0 0 0 12 7 11 6 5 5 1 0 0 0 0 0 0
629 706 813 751 393 532 418 340 130 16 1 0 0 0 0 0 0 0 0 0 0 16 17 9 8 4 3 1 0 0 0 0 0
602 652 757 667 601 577 592 454 419 251 104 1 0 0 0 0 0 0 0 0 0 3 20 13 9 9 6 3 1 0 0 0 0
451 517 624 618 664 621 560 522 435 341 324 211 4 0 0 0 0 0 0 0 0 0 5 48 18 4 7 8 8 4 2 1 0
0 33 394 590 592 658 630 569 331 329 348 265 161 23 0 0 0 0 0 0 0 0 0 0 133 143 20 6 4 4 8 8 2
0 0 0 13 581 554 541 475 412 268 251 215 382 164 102 0 0 0 0 0 0 0 0 0 58 161 175 119 44 14 12 4 1
0 0 0 0 0 14 483 435 341 369 371 215 202 417 236 111 1 0 0 0 0 0 0 0 0 122 211 116 63 93 19 13 9
0 0 0 0 0 0 0 211 436 370 363 295 277 264 248 239 97 29 0 0 0 0 0 0 0 0 17 154 162 137 46 11 8
0 0 0 0 0 0 0 0 48 271 260 199 151 160 214 225 109 62 4 0 0 0 0 0 0 0 0 0 20 90 132 120 87
0 0 0 0 0 0 0 0 0 40 103 337 155 201 135 78 43 30 3 28 0 0 0 0 0 0 0 0 0 0 0 84 100
0 0 0 0 0 0 0 0 0 0 5 20 30 40 10 5 60 94 48 0 0 0 1 0 0 0 6 0 0 0 0 32 66
0 0 0 0 0 0 0 0 0 0 0 13 23 32 14 51 102 133 103 26 10 1 0 0 0 0 0 0 0 0 0 0 22
3 0 0 0 0 0 0 0 0 0 0 0 23 54 61 34 40 3 29 178 104 58 17 0 1 3 17 0 0 0 0 0 0
3 0 0 0 0 0 0 0 0 0 0 0 0 19 41 52 59 17 35 10 17 12 0 0 0 0 0 0 0 0 0 0 0
CIN
0 -3 -18 -122 0 0 0 0 -2 0 0 0 0 0 0 0 0 -1 0 -1 0 -1 -4 0 0 0 0 -1 -1 0 -1 0 0
0 -9 -79 -28 0 0 0 0 -2 0 0 0 0 0 0 -1 0 -1 -1 -3 -1 0 -2 -1 0 0 -1 0 -1 -1 -1 0 0
-4 -30 -120 -19 0 0 0 0 0 0 0 0 0 0 0 0 0 -1 -1 -2 -3 0 0 0 -1 0 -1 -1 -1 0 0 0 -2
-8 -8 -32 -111 -125 -156 0 0 0 0 0 0 0 0 0 -1 0 0 0 -1 0 0 0 0 0 0 0 0 0 -1 -1 0 -1
-6 -2 -7 -24 -65 -104 -4 0 0 0 0 0 0 0 0 0 0 -1 -1 0 -1 0 0 0 0 0 0 0 0 0 0 0 0
-14 -2 -4 -7 -12 -27 -89 0 0 0 0 0 0 0 0 -1 0 0 0 0 0 -1 0 0 0 0 0 0 0 0 0 0 0
-1 -3 -18 -21 -3 -2 -15 -70 0 0 0 0 0 0 0 -1 0 0 0 0 -1 -1 -1 0 0 0 0 0 0 0 0 0 0
0 0 0 0 -9 0 -2 -3 -26 -48 -1 0 0 0 0 0 0 0 0 0 0 -2 -2 0 0 0 0 0 0 0 0 0 0
-1 -1 0 0 0 0 0 -1 0 -4 -22 -1 0 0 0 0 0 0 0 0 0 -1 -4 -1 0 0 0 0 0 0 0 0 0
-1 0 0 0 0 0 -1 0 0 -6 -4 -11 -1 0 0 0 0 0 0 0 0 0 -1 -44 -2 -1 0 0 0 0 0 0 0
0 -18 -4 0 0 0 0 0 -5 0 -1 -13 -29 -37 0 0 0 0 0 0 0 0 0 0 -29 -41 -7 0 -1 -1 0 0 0
0 0 0 -2 0 0 0 0 -1 -5 -4 -10 -2 -19 -27 0 0 0 0 0 0 0 0 0 -31 -17 -19 -27 -22 -1 -2 -3 -4
0 0 0 0 0 -30 0 0 0 -2 -3 -16 -16 0 -1 -17 -11 0 0 0 0 0 0 0 0 -10 -4 -19 -28 -24 -5 -6 -9
0 0 0 0 0 0 0 -7 0 0 -1 -11 -11 -5 0 0 -7 -71 0 0 0 0 0 0 0 0 -40 -1 -1 -3 -5 -2 -3
0 0 0 0 0 0 0 -1 -8 0 0 -5 -18 -13 -2 0 -5 -28 -78 0 0 0 0 0 0 0 0 0 -11 -2 0 -2 -7
0 0 0 0 0 0 0 0 0 -4 -2 0 -8 -1 -10 -16 -31 -90 -21 -94 0 0 0 0 0 0 0 0 0 0 0 -7 -3
0 0 0 0 0 0 0 0 0 0 0 0 -5 -1 -3 -6 -47 -86 -86 -3 0 0 -84 0 0 -26 -41 0 0 0 0 -25 -13
0 0 0 0 0 0 0 0 0 0 0 -2 0 0 0 -3 -22 -37 -89 -96 -63 0 0 0 0 0 0 0 0 0 0 0 -17
-1 0 0 0 0 0 0 0 0 0 0 0 -1 -1 -1 -1 0 -10 -41 -23 -24 -51 -48 0 -1 -68 -96 0 0 0 0 0 0
-2 -1 0 0 0 0 0 0 0 0 0 0 0 -1 -1 -4 0 -2 0 -8 -75 -75 0 0 0 0 0 0 0 0 0 0 0
Wind_Speed
14 11 10 13 14 14 14 15 15 15 15 15 13 13 12 11 12 12 14 15 15 15 16 16 17 17 18 18 20 20 21 22 22
12 11 11 12 12 13 13 13 14 14 15 15 13 12 12 13 12 13 12 12 13 14 15 15 15 16 16 17 18 19 20 20 21
10 10 10 11 12 12 12 12 12 13 14 15 12 12 11 12 13 13 13 10 11 12 13 14 14 15 15 15 16 17 18 19 20
9 9 9 9 10 11 12 11 11 12 13 14 13 11 11 14 13 12 12 13 10 11 12 13 13 13 13 14 14 15 17 17 18
10 11 9 9 8 9 10 12 12 11 11 13 14 11 12 12 12 12 12 13 12 11 12 13 13 13 13 13 13 14 15 16 16
11 11 13 11 10 9 9 11 12 11 12 12 11 11 10 13 13 12 12 12 11 11 12 12 12 12 13 12 12 12 13 13 14
16 17 13 13 13 12 12 12 12 13 14 11 10 10 10 11 14 13 11 10 10 10 9 10 10 11 12 13 13 12 11 11 12
18 19 16 16 14 15 13 14 14 13 16 14 12 10 9 8 9 12 11 10 10 10 8 8 8 10 11 12 12 13 12 11 11
23 23 22 20 18 18 19 20 17 18 18 17 15 13 10 9 10 9 10 12 11 12 9 8 8 8 8 9 10 12 13 13 11
26 26 25 23 23 23 21 21 22 21 21 19 18 16 14 13 11 11 8 13 13 13 14 12 9 9 8 7 7 10 12 13 12
25 26 27 26 25 24 24 24 23 24 25 23 21 19 18 17 15 14 12 11 14 14 15 14 13 10 9 9 10 12 13 13 12
28 28 27 28 27 27 27 28 25 25 25 27 27 25 23 21 20 18 15 15 15 15 15 15 15 15 12 11 12 12 12 11 9
30 31 31 29 29 30 28 28 29 29 27 28 28 30 28 26 23 22 21 19 21 18 16 16 16 16 14 14 15 14 14 14 14
32 32 32 33 33 32 31 31 29 30 30 30 30 30 32 32 29 28 25 22 24 25 21 16 16 15 16 16 16 16 15 13 12
34 34 34 34 34 35 35 35 33 33 32 33 33 31 31 32 32 33 31 30 30 33 31 23 21 15 14 14 14 13 16 16 19
36 36 36 36 36 36 36 38 38 36 34 36 36 34 31 32 32 32 33 24 30 33 37 33 28 28 18 16 16 15 15 16 18
41 40 40 38 39 38 37 36 38 39 35 36 36 37 34 31 31 31 30 30 27 27 34 32 32 31 25 25 22 18 18 18 19
41 41 40 40 39 40 39 37 38 40 39 35 34 35 37 33 29 30 28 30 29 30 28 28 27 22 27 30 31 26 25 25 24
37 39 40 40 39 41 40 37 39 38 41 39 38 40 38 37 37 31 30 27 27 27 26 28 27 27 29 28 28 30 28 32 30
31 32 34 37 39 40 41 39 38 38 40 40 39 40 40 39 40 42 37 31 29 29 30 29 28 29 28 29 27 27 29 28 30
Wind_Direction
11 43 38 25 21 29 28 22 24 16 10 360 6 3 4 21 21 32 16 8 29 32 28 24 26 29 27 33 36 36 35 36 31
32 33 20 16 17 20 22 25 21 14 7 1 16 12 2 349 355 353 5 11 31 21 22 32 26 25 28 26 24 30 34 34 33
39 32 23 13 5 8 11 11 12 14 9 2 13 11 2 353 345 343 345 8 10 16 14 12 13 14 17 20 22 28 27 28 24
16 16 20 21 15 2 357 360 359 358 357 354 1 12 2 344 343 342 341 340 351 355 355 355 360 5 11 15 18 21 17 22 21
348 347 353 358 6 6 359 349 347 350 352 350 348 352 347 347 346 343 340 333 336 347 343 341 343 351 357 7 13 16 19 20 19
331 331 330 335 337 343 346 343 341 341 338 340 351 356 349 334 335 336 336 334 336 338 340 339 340 342 345 354 2 9 15 24 24
315 315 319 319 320 322 324 326 328 328 323 335 338 340 349 339 324 326 333 335 333 337 344 344 343 341 341 341 346 354 6 16 23
309 308 312 310 309 310 313 311 312 318 312 321 325 332 337 347 339 321 321 321 323 325 335 342 342 340 338 337 338 341 348 359 11
303 303 303 304 303 303 302 302 303 303 305 308 313 314 320 327 327 329 314 308 311 313 317 325 330 335 339 341 339 336 336 341 351
300 297 297 297 298 297 298 298 296 297 297 301 304 304 306 309 315 319 312 304 300 302 305 308 312 318 323 330 335 332 330 331 340
301 298 296 293 292 292 292 292 293 293 293 294 295 296 300 302 304 308 309 298 297 295 297 301 303 303 307 313 317 319 320 324 329
296 296 295 292 292 289 289 288 288 288 289 289 290 291 292 295 297 300 301 301 292 289 289 292 295 299 299 301 304 308 311 315 319
296 293 291 291 291 289 286 284 285 285 285 287 286 288 289 290 291 294 294 295 294 292 284 286 287 290 293 297 300 302 303 306 309
295 294 292 290 288 286 285 284 282 283 284 284 286 286 286 287 288 287 288 289 289 290 292 285 281 280 285 289 294 297 300 301 301
293 291 290 289 287 284 282 282 282 281 282 284 284 285 286 286 287 286 285 285 284 284 286 289 290 267 265 268 274 279 293 297 300
290 288 287 286 284 283 282 280 280 281 281 283 285 285 283 284 285 288 285 288 284 286 280 283 288 288 282 267 265 269 275 285 293
287 285 284 283 282 281 280 279 279 278 279 279 284 285 286 287 285 287 286 285 286 291 282 278 285 287 289 289 287 277 277 281 287
288 284 282 281 280 279 279 278 277 277 276 275 275 283 284 289 289 287 290 288 286 288 287 283 282 284 288 289 287 288 287 286 286
295 287 283 280 280 278 278 278 276 276 275 275 275 276 280 284 287 291 291 293 289 288 288 288 287 285 286 289 289 290 289 289 289
308 297 288 284 282 280 277 277 276 275 275 275 276 276 277 279 281 284 286 289 291 292 290 289 290 291 292 293 290 289 287 289 291